Location: Arpaise
(41.0333°N, 14.7333°E)
Time: 23:56:38
(UTC+00:00)

SPOT 5 - Pass Details

Date: 05 July 2020
Orbit: 622 x 815 km, 98.3° (Epoch: 11 August)

Event Time Altitude Azimuth Distance (km) Brightness Sun altitude
Exits shadow 21:13:53 31° 205° (SSW) 1,306 3.9 -21.2°
Maximum altitude 21:15:55 49° 260° (W) 965 3.6 -21.4°
Drops below altitude 10° 21:20:39 10° 335° (NNW) 2,215 6.6 -21.8°
Sets 21:22:57 0° 341° (NNW) 3,109 7.6 -22.0°
